User: anonymous   Login
Location: Dimsdale
(55.1333°N, 118.9833°W)
Time: 11:49:05
(UTC+00:00)
Language:

AO-92 - Orbit

View from above orbital plane
View from above orbital plane
View from above satellite
View from above satellite

Ground track
Ground track

The orbit data is extracted from the following two-line orbital elements,

1 43137U 18004AC  23342.19070681  .00118379  00000-0  86313-3 0  9990
2 43137  97.3077  65.5848 0003418 228.4733 131.6238 15.72923770329353
Epoch (UTC): 08 December 2023 04:34:37
Eccentricity: 0.0003418
inclination: 97.3077°
perigee height: 348 km
apogee height: 353 km
right ascension of ascending node: 65.5848°
argument of perigee: 228.4733°
revolutions per day: 15.72923770
mean anomaly at epoch: 131.6238°
orbit number at epoch: 32935

The dashed part of the orbit path shows where the satellite is in the earth's shadow,  

DLR